• En España
  • Lista de países
  • Para 7 días
  • Temperatura del agua
  • Mapa Satelital
  • El tiempo en el mapa
  • Informadores
  • user-avatar
    Iniciar sesión

    Tiempo cada hora Povoa de Santo Adriao

    Hoy, 23 Enero, Martes

    Tiempo Temperatura Precipitaciones Viento Presión Humedad
    00:00 +10°C° 0 mm 4 mps 767 mmHg 94%
    01:00 +10°C° 0 mm 4 mps 767 mmHg 94%
    02:00 +10°C° 0 mm 4 mps 767 mmHg 95%
    03:00 +10°C° 0 mm 4 mps 767 mmHg 95%
    04:00 +9°C° 0 mm 3 mps 767 mmHg 96%
    05:00 +9°C° 0 mm 3 mps 767 mmHg 96%
    06:00 +10°C° 0 mm 3 mps 767 mmHg 95%
    07:00 +10°C° 0 mm 3 mps 767 mmHg 94%
    08:00 +10°C° 0 mm 3 mps 768 mmHg 93%
    09:00 +12°C° 0 mm 3 mps 768 mmHg 85%
    10:00 +14°C° 0 mm 4 mps 768 mmHg 77%
    11:00 +17°C° 0 mm 4 mps 768 mmHg 69%
    12:00 +18°C° 0 mm 4 mps 767 mmHg 66%
    13:00 +18°C° 0 mm 4 mps 767 mmHg 64%
    14:00 +19°C° 0 mm 4 mps 766 mmHg 62%
    15:00 +17°C° 0 mm 4 mps 766 mmHg 69%
    16:00 +15°C° 0 mm 4 mps 766 mmHg 77%
    17:00 +13°C° 0 mm 4 mps 766 mmHg 84%
    18:00 +12°C° 0 mm 4 mps 767 mmHg 87%
    19:00 +12°C° 0 mm 4 mps 767 mmHg 91%
    20:00 +11°C° 0 mm 4 mps 767 mmHg 94%
    21:00 +11°C° 0 mm 3 mps 767 mmHg 94%
    22:00 +10°C° 0 mm 3 mps 767 mmHg 95%
    23:00 +10°C° 0 mm 3 mps 767 mmHg 95%

    Mañana, 24 Enero, Miércoles

    Tiempo Temperatura Precipitaciones Viento Presión Humedad
    00:00 +10°C° 0 mm 3 mps 767 mmHg 96%
    01:00 +9°C° 0 mm 3 mps 766 mmHg 96%
    02:00 +9°C° 0 mm 2 mps 766 mmHg 96%
    03:00 +9°C° 0 mm 2 mps 766 mmHg 96%
    04:00 +8°C° 0 mm 2 mps 766 mmHg 97%
    05:00 +8°C° 0 mm 2 mps 765 mmHg 97%
    06:00 +9°C° 0 mm 2 mps 766 mmHg 96%
    07:00 +9°C° 0 mm 2 mps 766 mmHg 95%
    08:00 +10°C° 0 mm 2 mps 766 mmHg 94%
    09:00 +12°C° 0 mm 2 mps 766 mmHg 87%
    10:00 +14°C° 0 mm 2 mps 766 mmHg 80%
    11:00 +15°C° 0 mm 2 mps 766 mmHg 73%
    12:00 +16°C° 0 mm 2 mps 766 mmHg 68%
    13:00 +16°C° 0 mm 2 mps 765 mmHg 64%
    14:00 +17°C° 0 mm 2 mps 765 mmHg 60%
    15:00 +16°C° 0 mm 2 mps 765 mmHg 66%
    16:00 +14°C° 0 mm 2 mps 765 mmHg 72%
    17:00 +13°C° 0 mm 2 mps 765 mmHg 78%
    18:00 +12°C° 0 mm 2 mps 765 mmHg 81%
    19:00 +12°C° 0 mm 2 mps 765 mmHg 84%
    20:00 +10°C° 0 mm 2 mps 766 mmHg 87%
    21:00 +10°C° 0 mm 2 mps 765 mmHg 89%
    22:00 +10°C° 0 mm 2 mps 765 mmHg 90%
    23:00 +10°C° 0 mm 2 mps 765 mmHg 91%

    Pasado mañana, 25 Enero, Jueves

    Tiempo Temperatura Precipitaciones Viento Presión Humedad
    00:00 +10°C° 0 mm 2 mps 765 mmHg 92%
    01:00 +10°C° 0 mm 3 mps 765 mmHg 93%
    02:00 +11°C° 0 mm 3 mps 764 mmHg 94%
    03:00 +11°C° 0,4 mm 3 mps 764 mmHg 95%
    04:00 +12°C° 0,4 mm 4 mps 764 mmHg 95%
    05:00 +12°C° 0,4 mm 4 mps 764 mmHg 95%
    06:00 +12°C° 0,7 mm 4 mps 764 mmHg 94%
    07:00 +13°C° 0,7 mm 5 mps 764 mmHg 94%
    08:00 +13°C° 0,7 mm 5 mps 765 mmHg 93%
    09:00 +13°C° 0,1 mm 6 mps 765 mmHg 86%
    10:00 +14°C° 0,1 mm 6 mps 765 mmHg 78%
    11:00 +15°C° 0,1 mm 7 mps 765 mmHg 71%
    12:00 +15°C° 0 mm 7 mps 765 mmHg 66%
    13:00 +15°C° 0 mm 8 mps 765 mmHg 61%
    14:00 +15°C° 0 mm 8 mps 765 mmHg 56%
    15:00 +12°C° 0 mm 8 mps 765 mmHg 60%
    16:00 +11°C° 0 mm 7 mps 765 mmHg 63%
    17:00 +10°C° 0 mm 7 mps 765 mmHg 67%
    18:00 +9°C° 0 mm 7 mps 766 mmHg 69%
    19:00 +9°C° 0 mm 7 mps 767 mmHg 71%
    20:00 +8°C° 0 mm 6 mps 767 mmHg 72%
    21:00 +8°C° 0 mm 6 mps 768 mmHg 73%
    22:00 +7°C° 0 mm 6 mps 768 mmHg 74%
    23:00 +7°C° 0 mm 6 mps 768 mmHg 74%

    26 Enero, Viernes

    Tiempo Temperatura Precipitaciones Viento Presión Humedad
    00:00 +7°C° 0,1 mm 6 mps 768 mmHg 75%
    01:00 +7°C° 0,1 mm 6 mps 768 mmHg 76%
    02:00 +5°C° 0,1 mm 6 mps 768 mmHg 77%
    03:00 +5°C° 0,1 mm 6 mps 768 mmHg 78%
    04:00 +5°C° 0,1 mm 6 mps 768 mmHg 79%
    05:00 +5°C° 0,1 mm 6 mps 768 mmHg 80%
    06:00 +6°C° 0 mm 7 mps 768 mmHg 79%
    07:00 +6°C° 0 mm 7 mps 769 mmHg 77%
    08:00 +8°C° 0 mm 7 mps 769 mmHg 76%
    09:00 +9°C° 0 mm 7 mps 770 mmHg 68%
    10:00 +10°C° 0 mm 8 mps 770 mmHg 59%
    11:00 +12°C° 0 mm 8 mps 771 mmHg 51%
    12:00 +12°C° 0 mm 8 mps 770 mmHg 50%
    13:00 +12°C° 0 mm 8 mps 770 mmHg 49%
    14:00 +13°C° 0 mm 8 mps 770 mmHg 47%
    15:00 +11°C° 0 mm 7 mps 770 mmHg 53%
    16:00 +10°C° 0 mm 7 mps 770 mmHg 58%
    17:00 +9°C° 0 mm 7 mps 771 mmHg 63%
    18:00 +9°C° 0 mm 7 mps 771 mmHg 66%
    19:00 +8°C° 0 mm 7 mps 772 mmHg 70%
    20:00 +6°C° 0 mm 7 mps 772 mmHg 73%
    21:00 +6°C° 0 mm 7 mps 772 mmHg 75%
    22:00 +7°C° 0 mm 6 mps 773 mmHg 76%
    23:00 +7°C° 0 mm 6 mps 773 mmHg 77%

    27 Enero, Sábado

    Tiempo Temperatura Precipitaciones Viento Presión Humedad
    00:00 +7°C° 0 mm 6 mps 772 mmHg 78%
    01:00 +5°C° 0 mm 6 mps 772 mmHg 78%
    02:00 +5°C° 0 mm 6 mps 772 mmHg 79%
    03:00 +5°C° 0 mm 6 mps 772 mmHg 79%
    04:00 +5°C° 0 mm 6 mps 772 mmHg 79%
    05:00 +4°C° 0 mm 6 mps 772 mmHg 79%
    06:00 +5°C° 0 mm 6 mps 772 mmHg 76%
    07:00 +5°C° 0 mm 6 mps 772 mmHg 74%
    08:00 +7°C° 0 mm 6 mps 773 mmHg 71%
    09:00 +8°C° 0 mm 7 mps 772 mmHg 64%
    10:00 +10°C° 0 mm 7 mps 772 mmHg 58%
    11:00 +12°C° 0 mm 7 mps 772 mmHg 51%
    12:00 +14°C° 0 mm 7 mps 772 mmHg 51%
    13:00 +14°C° 0 mm 7 mps 771 mmHg 50%
    14:00 +15°C° 0 mm 7 mps 770 mmHg 50%
    15:00 +14°C° 0 mm 7 mps 770 mmHg 56%
    16:00 +11°C° 0 mm 7 mps 770 mmHg 63%
    17:00 +10°C° 0 mm 7 mps 770 mmHg 69%
    18:00 +10°C° 0 mm 8 mps 770 mmHg 73%
    19:00 +10°C° 0 mm 8 mps 770 mmHg 77%
    20:00 +9°C° 0 mm 8 mps 770 mmHg 80%
    21:00 +10°C° 0 mm 9 mps 769 mmHg 80%
    22:00 +10°C° 0 mm 9 mps 769 mmHg 79%
    23:00 +9°C° 0 mm 10 mps 768 mmHg 78%

    28 Enero, Domingo

    Tiempo Temperatura Precipitaciones Viento Presión Humedad
    00:00 +10°C° 0 mm 9 mps 768 mmHg 79%
    01:00 +10°C° 0 mm 9 mps 767 mmHg 81%
    02:00 +8°C° 0 mm 9 mps 767 mmHg 83%
    03:00 +8°C° 0 mm 9 mps 767 mmHg 80%
    04:00 +9°C° 0 mm 8 mps 767 mmHg 77%
    05:00 +9°C° 0 mm 8 mps 767 mmHg 75%
    06:00 +7°C° 0 mm 8 mps 767 mmHg 70%
    07:00 +7°C° 0 mm 9 mps 767 mmHg 66%
    08:00 +7°C° 0 mm 9 mps 768 mmHg 62%
    09:00 +9°C° 0 mm 8 mps 768 mmHg 54%
    10:00 +10°C° 0 mm 8 mps 768 mmHg 46%
    11:00 +12°C° 0 mm 8 mps 768 mmHg 39%
    12:00 +12°C° 0 mm 7 mps 767 mmHg 38%
    13:00 +14°C° 0 mm 6 mps 767 mmHg 37%
    14:00 +14°C° 0 mm 5 mps 766 mmHg 35%
    15:00 +13°C° 0 mm 5 mps 766 mmHg 40%
    16:00 +11°C° 0 mm 4 mps 766 mmHg 45%
    17:00 +10°C° 0 mm 4 mps 766 mmHg 49%
    18:00 +8°C° 0 mm 4 mps 766 mmHg 51%
    19:00 +8°C° 0 mm 4 mps 766 mmHg 53%
    20:00 +7°C° 0 mm 4 mps 766 mmHg 55%
    21:00 +7°C° 0 mm 4 mps 766 mmHg 56%
    22:00 +7°C° 0 mm 4 mps 766 mmHg 56%
    23:00 +6°C° 0 mm 4 mps 765 mmHg 57%
    Mostrar más